Probability
0 0 0 0 0 0 0 0 0 0 0 0 0 0 0 0 0 0 0 0 0 0 0 0 0 0 0 0 0 0 0 0 1 3 6 6 4 2 1 0 0 0 0 0
0 0 0 0 0 0 0 0 0 0 0 0 0 0 0 0 0 0 0 0 0 0 0 0 0 0 0 0 0 0 0 0 0 3 6 6 5 3 2 1 0 0 0 0
0 0 0 0 0 0 0 0 0 0 0 0 0 0 0 0 0 0 0 0 0 0 0 0 0 0 0 0 0 0 0 0 0 2 5 6 5 4 3 1 0 0 0 0
0 0 0 0 0 0 0 0 0 0 0 0 0 0 0 0 0 0 0 0 0 0 0 0 0 0 0 0 0 0 0 0 0 2 5 6 5 4 3 2 1 0 0 0
0 0 0 0 0 0 0 0 0 0 0 0 0 0 0 0 0 0 0 0 0 0 0 0 0 0 0 0 0 0 0 0 0 1 3 5 4 4 3 2 1 0 0 0
0 0 0 0 0 0 0 0 0 0 0 0 0 0 0 0 0 0 0 0 0 0 0 0 0 0 0 0 0 0 0 0 0 0 1 3 3 3 3 2 1 0 0 0
0 0 0 0 0 0 0 0 0 0 0 0 0 0 0 0 0 0 0 0 0 0 0 0 0 0 0 0 0 0 0 0 0 0 0 1 2 3 3 2 1 0 0 0
0 0 0 0 0 0 0 0 0 0 0 0 0 0 0 0 0 0 0 0 0 0 0 0 0 0 0 0 0 0 0 0 0 0 0 0 1 2 2 1 0 0 0 0
0 0 0 0 0 0 0 0 0 0 0 0 0 0 0 0 0 0 0 0 0 0 0 0 0 0 0 0 0 0 0 0 0 0 0 0 0 1 1 0 0 0 0 0
0 0 0 0 0 0 0 0 0 0 0 0 0 0 0 0 0 0 0 0 0 0 0 0 0 0 0 0 0 0 0 0 0 0 0 0 0 0 0 0 0 0 0 0
0 0 0 0 0 0 0 0 0 0 0 0 0 0 0 0 0 0 0 0 0 0 0 0 0 0 0 0 0 0 0 0 0 0 0 0 0 0 0 0 0 0 0 0
0 0 0 0 0 0 0 0 0 0 0 0 0 0 0 0 0 0 0 0 0 0 0 0 0 0 0 0 0 0 0 0 0 0 0 0 0 0 0 0 0 0 0 0
0 0 0 0 0 0 0 0 0 0 0 0 0 0 0 0 0 0 0 0 0 0 0 0 0 0 0 0 0 0 0 0 0 0 0 0 0 0 0 0 0 0 0 0
0 0 0 0 0 0 0 0 0 0 0 0 0 0 0 0 0 0 0 0 0 0 0 0 0 0 0 0 0 0 0 0 0 0 0 0 0 0 0 0 0 0 0 0
0 0 0 0 0 0 0 0 0 0 0 0 0 0 0 0 0 0 0 0 0 0 0 0 0 0 0 0 0 0 0 0 0 0 0 0 0 0 0 0 0 0 0 0
0 0 0 0 0 0 0 0 0 0 0 0 0 0 0 0 0 0 0 0 0 0 0 0 0 0 0 0 0 0 0 0 0 0 0 0 0 0 0 0 0 0 0 0
0 0 0 0 0 0 0 0 0 0 0 0 0 0 0 0 0 0 0 0 0 0 0 0 0 0 0 0 0 0 0 0 0 0 0 0 0 0 0 0 0 0 0 0
0 0 0 0 0 0 0 0 0 0 0 0 0 0 0 0 0 0 0 0 0 0 0 0 0 0 0 0 0 0 0 0 0 0 0 0 0 0 0 0 0 0 0 0
0 0 0 0 0 0 0 0 0 0 0 0 0 0 0 0 0 0 0 0 0 0 0 0 0 0 0 0 0 0 0 0 0 0 0 0 0 0 0 0 0 0 0 0
0 0 0 0 0 0 0 0 0 0 0 0 0 0 0 0 0 0 0 0 0 0 0 0 0 0 0 0 0 0 0 0 0 0 0 0 0 0 0 0 0 0 0 0
0 0 0 0 0 0 0 0 0 0 0 0 0 0 0 0 0 0 0 0 0 0 0 0 0 0 0 0 0 0 0 0 0 0 0 0 0 0 0 0 0 0 0 0
0 0 0 0 0 0 0 0 0 0 0 0 0 0 0 0 0 0 0 0 0 0 0 0 0 0 0 0 0 0 0 0 0 0 0 0 0 0 0 0 0 0 0 0
0 0 0 0 0 0 0 0 0 0 0 0 0 0 0 0 0 0 0 0 0 0 0 0 0 0 0 0 0 0 0 0 0 0 0 0 0 0 0 0 0 0 0 0
0 0 0 0 0 0 0 0 0 0 0 0 0 0 0 0 0 0 0 0 0 0 0 0 0 0 0 0 0 0 0 0 0 0 0 0 0 0 0 0 0 0 0 0
0 0 0 0 0 0 0 0 0 0 0 0 0 0 0 0 0 0 0 0 0 0 0 0 0 0 0 0 0 0 0 0 0 0 0 0 0 0 0 0 0 0 0 0
0 0 0 0 0 0 0 0 0 0 0 0 0 0 0 0 0 0 0 0 0 0 0 0 0 0 0 0 0 0 0 0 0 0 0 0 0 0 0 0 0 0 0 0
Wind_Speed
4 4 9 11 10 5 4 4 5 5 3 3 9 13 13 9 7 9 9 8 8 8 6 3 3 3 3 3 3 4 4 4 4 3 2 2 1 1 1 1 1 2 2 2
3 10 9 6 7 6 5 6 6 5 3 4 7 13 12 8 9 9 10 9 8 6 4 3 2 2 3 4 4 4 4 4 4 3 3 2 2 1 1 1 0 1 1 2
11 5 7 8 7 9 9 9 7 6 5 3 5 11 8 5 5 6 7 7 6 7 7 5 4 4 4 4 5 5 5 5 4 4 3 2 2 1 1 0 0 1 1 1
9 5 6 7 9 10 10 8 7 5 3 4 1 8 8 4 5 6 6 5 6 6 5 5 4 4 5 5 4 4 4 4 4 4 4 4 3 2 2 1 1 1 0 1
8 7 8 10 10 10 6 4 5 4 3 5 3 5 10 3 6 8 7 6 6 6 6 6 5 5 4 4 3 3 3 3 3 4 5 4 3 1 0 0 0 1 1 1
6 5 7 7 5 8 5 3 2 1 1 7 8 7 10 6 8 6 6 6 6 5 5 4 3 2 2 2 3 3 4 3 3 3 4 4 4 2 2 1 1 1 1 1
5 5 4 4 5 5 6 5 1 2 4 8 5 7 12 8 7 7 7 7 6 4 4 4 3 3 3 3 3 3 4 3 2 3 3 3 3 3 3 2 2 1 1 2
7 7 9 7 8 9 9 9 7 7 6 4 3 9 10 6 4 4 5 4 3 3 3 4 4 4 4 4 4 4 4 3 3 3 3 2 3 2 2 2 2 2 2 2
8 6 3 5 4 9 8 8 5 3 1 3 6 7 10 4 3 2 3 2 4 4 4 3 3 4 4 4 4 4 4 3 2 2 3 2 2 2 1 1 1 1 2 2
5 3 3 3 3 2 5 8 5 5 5 6 6 5 6 4 4 3 3 4 4 3 3 3 3 4 3 3 3 3 4 4 3 3 2 1 1 1 1 0 1 1 2 2
3 3 2 4 8 10 6 6 5 5 4 5 4 7 5 5 4 4 5 4 4 4 4 3 3 3 3 3 3 3 3 3 3 2 2 2 1 0 1 0 1 2 2 2
4 3 3 5 3 4 6 8 8 6 5 4 3 8 4 3 3 2 3 3 2 3 2 2 3 3 3 3 3 3 3 3 2 2 2 2 1 1 1 1 2 2 2 3
5 4 2 1 1 2 5 6 7 4 3 5 5 8 3 2 2 2 2 2 2 2 1 1 2 3 3 3 3 2 2 3 2 3 2 2 1 1 1 1 2 2 2 3
4 4 6 8 5 6 6 7 7 7 6 7 9 9 8 5 4 4 3 2 2 2 2 3 3 3 3 3 3 3 2 2 2 3 2 2 0 0 1 1 2 2 3 3
4 4 5 5 4 4 6 9 11 12 11 10 9 10 11 8 5 4 3 2 2 2 2 3 4 3 3 3 2 2 2 1 2 3 2 1 0 1 1 1 2 3 3 4
2 3 2 4 4 4 7 10 13 13 11 11 9 12 9 6 2 2 3 3 3 3 3 4 4 4 3 3 3 2 1 1 2 2 1 0 0 1 1 2 3 3 4 4
3 3 2 3 2 1 9 12 14 10 9 10 13 13 5 4 5 5 5 5 5 4 4 4 4 4 3 3 3 3 2 1 2 1 1 0 0 1 2 3 3 4 4 4
5 3 2 1 2 8 7 3 8 9 8 9 8 6 6 7 5 3 3 4 4 3 4 4 3 3 2 2 2 2 2 2 1 1 0 0 0 1 2 2 3 4 4 4
7 6 3 3 4 7 6 3 4 6 6 6 8 6 4 2 1 2 1 3 3 3 3 4 3 3 3 2 2 3 2 2 2 1 1 1 1 1 2 3 3 4 4 4
5 6 4 4 4 7 5 2 1 3 4 2 3 4 3 3 2 4 1 2 2 3 3 3 3 3 3 2 3 3 2 1 0 1 1 1 1 1 2 3 3 3 3 4
4 4 6 5 5 6 4 4 1 4 4 1 2 2 2 4 4 2 2 2 3 3 3 3 3 3 2 2 3 3 2 1 1 1 1 1 1 2 2 2 3 3 4 4
4 4 5 4 5 7 3 2 3 3 1 0 1 2 3 2 2 2 2 3 3 3 3 3 3 2 1 1 3 2 1 1 0 1 1 1 2 2 2 2 3 3 3 4
3 4 3 5 5 3 1 2 2 1 1 1 1 1 3 2 2 2 2 3 3 3 2 2 3 2 1 1 2 2 0 0 1 1 1 2 2 2 2 2 3 3 3 3
3 1 2 2 4 3 3 3 2 1 1 1 1 1 2 2 3 3 3 2 2 2 2 2 3 2 1 1 2 1 0 1 1 1 1 2 2 2 2 2 2 2 3 3
3 2 2 4 4 4 4 3 2 1 1 1 1 1 2 3 2 3 3 2 2 2 1 2 2 2 1 1 1 1 1 1 1 1 1 2 2 2 2 2 2 3 3 4
3 4 4 5 4 3 4 3 2 2 1 1 1 1 1 2 3 2 2 2 2 2 1 1 1 1 1 1 1 1 1 0 0 1 2 2 2 2 2 3 4 5 6 9
Wind_Direction
159 171 205 205 202 203 182 198 242 252 252 239 248 264 270 265 254 254 253 245 241 242 247 236 218 198 177 179 182 186 174 175 161 155 158 165 190 209 207 199 196 187 185 180
152 230 220 183 193 212 214 236 254 279 275 253 271 271 265 251 238 235 236 236 232 235 241 234 212 192 187 191 189 185 183 179 175 175 172 171 171 182 197 202 184 187 183 188
197 217 184 183 194 206 221 222 232 251 309 296 296 286 263 256 238 245 239 232 227 218 218 219 211 209 196 194 193 186 184 180 177 162 137 108 85 73 92 268 251 254 205 200
222 227 182 191 206 193 231 219 212 226 260 281 253 285 272 254 264 253 247 239 235 231 217 210 203 206 206 206 194 184 171 170 168 157 155 159 167 191 217 210 210 293 246 212
217 196 193 206 208 186 206 178 189 209 216 272 235 246 278 260 249 249 245 237 235 227 212 208 204 205 207 195 181 178 154 153 157 156 160 157 164 183 166 86 104 310 315 314
225 206 200 203 193 179 152 95 70 79 158 256 220 208 270 233 221 236 240 240 237 228 212 208 203 187 184 168 159 154 143 148 147 145 152 156 160 158 140 194 227 279 301 297
223 223 205 167 146 162 155 136 149 251 228 246 188 208 249 244 225 220 231 238 233 214 194 191 184 178 173 167 164 153 146 151 148 142 149 155 161 161 176 198 211 241 269 274
192 223 199 188 182 175 186 172 180 201 219 261 201 231 252 254 246 235 234 231 220 202 194 196 195 183 176 173 167 156 153 154 147 141 144 144 148 162 186 202 209 233 251 257
191 222 185 188 171 156 168 198 182 152 192 248 248 271 294 273 277 246 233 222 219 210 203 199 190 180 172 167 166 159 154 144 144 147 145 141 145 148 182 222 229 257 272 280
170 209 210 179 133 183 163 151 143 179 194 237 261 251 248 267 262 254 235 228 237 220 202 194 187 180 174 168 159 149 153 155 154 143 139 129 141 152 161 186 262 277 282 285
170 187 198 169 192 183 156 170 171 173 193 190 246 260 227 227 229 227 234 234 230 217 202 191 184 169 153 143 140 142 144 138 132 130 125 117 96 68 77 49 284 282 292 296
169 171 212 223 229 190 177 179 167 179 211 197 214 265 274 249 248 227 239 243 231 215 198 172 159 145 136 138 141 145 145 137 142 135 123 121 96 58 54 344 309 311 310 308
158 167 169 199 221 185 198 191 184 160 156 188 205 259 295 320 323 282 248 245 232 201 177 144 137 143 145 145 143 140 141 142 138 126 118 107 91 56 6 325 322 329 322 318
158 180 196 203 206 182 198 200 188 178 204 218 225 253 281 284 285 290 276 250 233 213 188 166 157 154 148 144 144 139 133 136 133 122 115 106 92 349 329 331 331 324 318 316
165 211 224 248 246 203 215 209 199 207 211 214 230 237 255 257 256 258 251 242 230 230 205 178 168 163 152 143 138 136 137 140 133 120 111 117 42 347 346 338 327 324 322 320
163 208 205 257 245 232 243 231 219 222 222 229 241 254 254 267 266 258 246 222 223 223 209 187 169 160 164 165 158 142 141 138 119 123 139 129 63 357 337 327 327 330 327 323
191 176 185 246 237 235 250 224 216 216 212 203 228 242 238 251 242 230 224 218 217 220 198 179 176 174 173 169 158 162 169 138 129 137 130 81 47 341 323 328 335 328 320 320
190 182 188 201 165 231 243 223 205 213 232 221 226 235 223 225 233 232 212 203 217 206 176 169 165 160 153 137 134 135 127 124 120 93 42 357 345 319 321 329 323 317 316 315
193 184 193 189 222 267 286 256 190 198 245 231 226 236 233 218 43 318 246 186 199 186 165 161 157 152 140 134 134 118 102 96 86 58 305 289 288 302 313 316 313 312 314 315
179 180 191 193 209 238 256 287 261 151 258 265 204 220 213 147 187 251 213 149 141 126 124 128 123 116 120 129 125 116 115 102 116 271 287 303 301 294 299 302 305 308 310 308
161 184 207 214 228 256 275 294 116 173 243 273 185 196 181 186 203 187 127 117 119 114 112 115 114 119 138 137 128 126 126 186 255 314 335 333 321 305 295 302 308 313 315 317
177 178 195 192 216 247 309 84 168 222 282 209 192 198 188 184 140 125 127 122 111 103 99 106 107 96 86 128 135 133 166 239 20 22 341 325 319 315 324 322 317 316 317 319
201 198 189 197 220 264 244 227 263 250 240 270 237 223 172 162 166 156 138 122 115 115 116 116 119 107 65 97 131 138 229 43 45 16 333 322 328 326 318 310 311 316 316 316
269 239 173 242 265 283 291 295 310 317 263 276 250 196 156 160 162 151 137 123 115 110 116 111 107 99 59 48 63 99 22 46 53 359 332 329 329 323 320 313 306 305 306 305
237 204 209 246 271 304 303 284 278 312 355 11 25 92 140 136 144 149 145 143 140 127 115 118 126 131 137 93 59 29 27 54 27 346 332 327 320 314 313 312 301 298 283 289
214 202 208 240 240 230 266 292 309 301 294 235 150 78 92 138 151 145 143 139 132 127 117 112 117 132 145 107 31 6 1 41 26 327 322 313 311 311 311 312 316 314 313 316